WS Maaseik 1 Meer informatie WS Maaseik 1


WS Maaseik 2 Meer informatie WS Maaseik 2


Regen radar Meer informatie rain snow radar


Bezoek onze andere website:

Vorige versie
weerstation Maaseik


Bezoek ook eens deze sites:

Weerstation Geleen



We konden geen weer-waarchuwingen ophalen. Ga rechtstreeks naar de Meteoalarm site : www.meteoalarm.eu en controleer daar .

15 daagse weersverwachting Vejle (DK)

  • Overzicht
  • Per uur
  • 15 dagen
  • Extra
  • Vergelijk
  • Kaarten
  • Dagkaart
  • Meer »
  • Info
  • Statistieken
  • Directe link
    Temp 6h Neerslag Wind  
 04:47     22:07    Daglengte: 17:20 Vandaag
14:00
22°
0.5 mm
4
20:00
19°
1.2 mm
3
 04:48     22:07    Daglengte: 17:19 Morgen
02:00
14°
 
3
08:00
15°
 
3
14:00
18°
 
6
20:00
16°
 
6
 04:49     22:06    Daglengte: 17:17 Dinsdag 05 Jul
02:00
13°
 
4
08:00
14°
0.5 mm
5
14:00
18°
 
7
20:00
15°
 
6
 04:50     22:05    Daglengte: 17:15 Woensdag 06 Jul
02:00
11°
 
3
Locatie info
Region: Syddanmark
Latitude: 55.7114°N
Longitude: 9.5368°E
5 masl
Postcode: 7100
Temp/Neerslag /Baro Onweer/Dauwpunt
    Temp Baro 1h Neerslag Dauwpunt Wind UV Bewolking  
 04:47     22:07    Daglengte: 17:20 Vandaag
09:00
17°
1016.3 hPa
12%
15.7°
2
Windvlaag: 3.8 m/s
24%
10:00
19°
1016.2 hPa
15%
16.3°
2
Windvlaag: 3.7 m/s
12%
11:00
21°
1016.3 hPa
23%
13.9°
3
Windvlaag: 4.5 m/s
10%
12:00
21°
1016.1 hPa
79%
11.6°
3
Windvlaag: 5 m/s
19%
13:00
22°
1015.9 hPa 0.2 mm
82%
11.3°
3
Windvlaag: 6.9 m/s
45%
14:00
22°
1015.7 hPa 0.3 mm
82%
10.6°
4
Windvlaag: 7.3 m/s
20%
15:00
21°
1015.6 hPa 1.2 mm
80%
9.8°
3
Windvlaag: 7.4 m/s
24%
16:00
21°
1015.6 hPa
70%
9.7°
4
Windvlaag: 6.4 m/s
49%
17:00
21°
1015.5 hPa
30%
11.1°
3
Windvlaag: 4.9 m/s
34%
18:00
20°
1015.3 hPa
27%
10.6°
4
Windvlaag: 4.3 m/s
60%
19:00
20°
1015.3 hPa
30%
10.9°
3
Windvlaag: 4.2 m/s
59%
20:00
19°
1015.2 hPa
30%
13.2°
3
Windvlaag: 3.7 m/s
39%
21:00
18°
1015.2 hPa
14%
14.0°
3
Windvlaag: 1.9 m/s
31%
22:00
16°
1015.5 hPa
26%
14.1°
2
Windvlaag: -0 m/s
57%
23:00
15°
1015.7 hPa
36%
14.0°
2
Windvlaag: 0.1 m/s
81%
 04:48     22:07    Daglengte: 17:19 Morgen
00:00
15°
1015.6 hPa
23%
13.9°
2
Windvlaag: 1.1 m/s
66%
01:00
15°
1015.6 hPa
14%
13.5°
2
Windvlaag: 1.9 m/s
53%
02:00
14°
1015.5 hPa
14%
13.5°
3
Windvlaag: 1.7 m/s
58%
03:00
14°
1015.4 hPa
14%
13.3°
3
Windvlaag: 1.5 m/s
14%
04:00
13°
1015.4 hPa
14%
13.0°
2
Windvlaag: 1.6 m/s
7%
05:00
13°
1015.4 hPa
14%
12.3°
2
Windvlaag: 3.1 m/s
6%
06:00
13°
1015.4 hPa
14%
12.2°
2
Windvlaag: 3.3 m/s
18%
07:00
14°
1015.4 hPa
14%
12.6°
3
Windvlaag: 4 m/s
12%
08:00
15°
1015.5 hPa
14%
12.9°
3
Windvlaag: 4.8 m/s
37%
09:00
16°
1015.3 hPa
29%
11.6°
4
Windvlaag: 5.5 m/s
55%
10:00
17°
1015.1 hPa
77%
10.8°
5
Windvlaag: 6.4 m/s
72%
11:00
17°
1015.1 hPa
81%
10.9°
5
Windvlaag: 6.9 m/s
54%
12:00
18°
1014.7 hPa
74%
12.1°
5
Windvlaag: 7.9 m/s
54%
13:00
18°
1014.6 hPa
33%
11.4°
6
Windvlaag: 7.2 m/s
49%
14:00
18°
1014.6 hPa
70%
10.5°
6
Windvlaag: 6.4 m/s
72%
15:00
19°
1014.7 hPa
75%
9.5°
6
Windvlaag: 6.2 m/s
70%
16:00
19°
1014.8 hPa
77%
9.7°
6
Windvlaag: 5.4 m/s
29%
17:00
18°
1014.8 hPa
78%
9.5°
6
Windvlaag: 6 m/s
70%
18:00
17°
1014.6 hPa
81%
9.0°
6
Windvlaag: 5.6 m/s
49%
19:00
17°
1014.5 hPa
76%
9.5°
6
Windvlaag: 5.7 m/s
44%
20:00
16°
1014.7 hPa
33%
9.7°
6
Windvlaag: 5.2 m/s
41%
21:00
16°
1014.8 hPa
15%
9.3°
5
Windvlaag: 5.3 m/s
21%
22:00
15°
1015.0 hPa
14%
10.4°
5
Windvlaag: 4.4 m/s
13%
23:00
14°
1015.2 hPa
14%
11.2°
4
Windvlaag: 4.7 m/s
19%
 04:49     22:06    Daglengte: 17:17 Dinsdag 05 Jul
00:00
13°
1015.4 hPa
14%
10.9°
4
Windvlaag: 5.2 m/s
14%
01:00
13°
1015.4 hPa
14%
10.6°
3
Windvlaag: 5.4 m/s
14%
02:00
13°
1015.5 hPa
14%
10.5°
4
Windvlaag: 5.9 m/s
23%
03:00
13°
1015.3 hPa
14%
10.7°
4
Windvlaag: 5.1 m/s
45%
04:00
13°
1015.3 hPa
14%
10.1°
4
Windvlaag: 5.2 m/s
21%
05:00
12°
1015.3 hPa 0.5 mm
21%
10.6°
4
Windvlaag: 5.1 m/s
75%
06:00
13°
1015.5 hPa
21%
10.8°
4
Windvlaag: 4.9 m/s
65%
07:00
13°
1015.6 hPa
23%
10.1°
4
Windvlaag: 4.9 m/s
43%
08:00
14°
1015.8 hPa
33%
9.2°
5
Windvlaag: 4.7 m/s
48%
09:00
15°
1015.8 hPa
37%
9.4°
5
Windvlaag: 4.6 m/s
51%
10:00
16°
1015.9 hPa
24%
11.9°
6
Windvlaag: 4.2 m/s
35%
11:00
17°
1016.0 hPa
24%
11.3°
6
Windvlaag: 3.7 m/s
55%
12:00
17°
1016.2 hPa
24%
12.4°
6
Windvlaag: 3.7 m/s
39%
13:00
17°
1016.5 hPa
22%
12.1°
6
Windvlaag: 2.9 m/s
34%
14:00
18°
1016.6 hPa
24%
11.0°
7
Windvlaag: 1.1 m/s
42%
15:00
18°
1016.7 hPa
23%
8.8°
7
Windvlaag: 1.1 m/s
42%
16:00
18°
1016.9 hPa
24%
10.4°
7
Windvlaag: 1 m/s
62%
17:00
17°
1017.0 hPa
25%
11.5°
6
Windvlaag: 0.7 m/s
55%
18:00
16°
1017.0 hPa
24%
13.9°
6
Windvlaag: 1 m/s
64%
19:00
16°
1017.0 hPa
22%
10.1°
6
Windvlaag: 0.6 m/s
32%
20:00
15°
1017.1 hPa
21%
9.9°
6
Windvlaag: 0.8 m/s
44%
21:00
14°
1017.2 hPa
21%
10.5°
5
Windvlaag: 0.1 m/s
37%
22:00
13°
1017.6 hPa
21%
10.8°
5
Windvlaag: 0.7 m/s
18%
23:00
12°
1017.8 hPa
21%
11.0°
4
Windvlaag: 1.1 m/s
30%
 04:50     22:05    Daglengte: 17:15 Woensdag 06 Jul
00:00
11°
1017.9 hPa
21%
10.1°
3
Windvlaag: 10.2 m/s
16%
01:00
11°
1017.9 hPa
21%
9.7°
3
Windvlaag: 10.4 m/s
46%
02:00
11°
1017.9 hPa
21%
9.6°
3
Windvlaag: 10.2 m/s
13%
03:00
10°
1017.8 hPa
21%
9.0°
3
Windvlaag: 10.9 m/s
12%
04:00
10°
Voelt als: 8.5°
1017.9 hPa
21%
8.6°
3
Windvlaag: 11.4 m/s
10%
05:00
10°
Voelt als: 8.4°
1017.8 hPa
22%
8.5°
3
Windvlaag: 11.7 m/s
20%
06:00
11°
1017.7 hPa
21%
8.8°
3
Windvlaag: 10.6 m/s
16%
07:00
12°
1017.6 hPa
21%
9.3°
3
Windvlaag: 11.5 m/s
61%
08:00
13°
1017.8 hPa
21%
9.5°
4
Windvlaag: 10.9 m/s
52%
Temp/Neerslag /Baro Onweer/Dauwpunt
    Temp Baro Neerslag Dauwpunt Wind Bewolking  
 04:47     22:07    Daglengte: 17:20 Vandaag
11:00
21°
1016.3 hPa   13.9°
3
10%
14:00
22°
1015.7 hPa 0.5 mm 10.6°
4
20%
17:00
21°
1015.5 hPa 1.2 mm 11.1°
3
34%
20:00
19°
1015.2 hPa   13.2°
3
39%
23:00
15°
1015.7 hPa   14.0°
2
81%
 04:48     22:07    Daglengte: 17:19 Morgen
02:00
14°
1015.5 hPa   13.5°
3
58%
05:00
13°
1015.4 hPa   12.3°
2
6%
08:00
15°
1015.5 hPa   12.9°
3
37%
11:00
17°
1015.1 hPa   10.9°
5
54%
14:00
18°
1014.6 hPa   10.5°
6
72%
17:00
18°
1014.8 hPa   9.5°
6
70%
20:00
16°
1014.7 hPa   9.7°
6
41%
23:00
14°
1015.2 hPa   11.2°
4
19%
 04:49     22:06    Daglengte: 17:17 Dinsdag 05 Jul
02:00
13°
1015.5 hPa   10.5°
4
23%
05:00
12°
1015.3 hPa 0.5 mm 10.6°
4
75%
08:00
14°
1015.8 hPa   9.2°
5
48%
11:00
17°
1016.0 hPa   11.3°
6
55%
14:00
18°
1016.6 hPa   11.0°
7
42%
17:00
17°
1017.0 hPa   11.5°
6
55%
20:00
15°
1017.1 hPa   9.9°
6
44%
23:00
12°
1017.8 hPa   11.0°
4
30%
 04:50     22:05    Daglengte: 17:15 Woensdag 06 Jul
02:00
11°
1017.9 hPa   9.6°
3
13%
05:00
10°
Voelt als: 8.4°
1017.8 hPa   8.5°
3
20%
08:00
13°
1017.8 hPa   9.5°
4
52%
11:00
16°
1019.2 hPa 6.6 mm 7.0°
9
1%
14:00
18°
1019.7 hPa 6.6 mm 7.0°
10
1%
17:00
17°
1019.9 hPa 6.6 mm 8.9°
9
1%
20:00
14°
1019.4 hPa 6.6 mm 10.2°
6
1%
23:00
12°
1018.7 hPa 6.7 mm 11.2°
3
1%
 04:51     22:04    Daglengte: 17:13 Donderdag 07 Jul
02:00
13°
1017.7 hPa 6.7 mm 10.4°
6
1%
05:00
14°
1017.3 hPa 6.7 mm 10.9°
6
1%
08:00
15°
1017.0 hPa 6.8 mm 12.8°
5
1%
11:00
16°
1017.5 hPa 7.6 mm 13.9°
7
1%
14:00
19°
1017.8 hPa 8.4 mm 13.6°
9
1%
17:00
18°
1018.7 hPa 8.8 mm 12.9°
9
1%
20:00
16°
1018.8 hPa 8.8 mm 11.9°
9
1%
23:00
14°
1019.4 hPa 8.8 mm 11.1°
8
1%
 04:52     22:03    Daglengte: 17:11 Vrijdag 08 Jul
02:00
16°
1018.7 hPa 8.8 mm 11.5°
9
1%
05:00
16°
1018.0 hPa 8.8 mm 13.2°
8
1%
08:00
16°
1017.0 hPa 8.9 mm 13.6°
7
1%
11:00
19°
1015.4 hPa 9.1 mm 12.4°
7
1%
14:00
16°
1014.3 hPa 10.8 mm 13.1°
7
1%
17:00
17°
1012.9 hPa 11.4 mm 14.0°
8
1%
20:00
16°
1013.4 hPa 11.6 mm 11.3°
10
1%
23:00
13°
1013.6 hPa 11.6 mm 10.1°
9
0%
 04:53     22:03    Daglengte: 17:10 Zaterdag 09 Jul
02:00
14°
1012.8 hPa 11.7 mm 9.6°
10
1%
05:00
14°
1013.2 hPa 11.7 mm 10.9°
7
1%
08:00
16°
1014.4 hPa 11.7 mm 12.0°
7
1%
11:00
19°
1016.2 hPa 11.7 mm 11.2°
8
1%
14:00
20°
1017.6 hPa 12.6 mm 11.4°
7
0%
17:00
18°
1019.1 hPa 13.4 mm 9.8°
5
1%
20:00
18°
1020.3 hPa 13.4 mm 9.9°
6
1%
23:00
13°
1021.8 hPa 13.4 mm 10.8°
5
0%
 04:54     22:02    Daglengte: 17:08 Zondag 10 Jul
02:00
11°
1022.1 hPa 13.4 mm 9.6°
5
0%
05:00
10°
Voelt als: 7.9°
1022.0 hPa 13.4 mm 8.7°
4
1%
08:00
14°
1021.5 hPa 26.8 mm 9.9°
6
1%
14:00
19°
1020.7 hPa 26.8 mm 12.0°
7
1%
20:00
17°
1019.3 hPa 28.1 mm 14.1°
6
1%
 04:56     22:01    Daglengte: 17:05 Maandag 11 Jul
02:00
13°
1018.3 hPa 28.8 mm 12.1°
4
1%
08:00
15°
1018.2 hPa 29.7 mm 12.7°
5
1%
14:00
19°
1018.8 hPa 30.2 mm 10.6°
8
1%
20:00
16°
1019.0 hPa 30.3 mm 10.8°
8
1%
 04:57     21:59    Daglengte: 17:02 Dinsdag 12 Jul
02:00
15°
1016.7 hPa 30.3 mm 13.6°
7
1%
08:00
16°
1016.9 hPa 30.4 mm 11.4°
9
1%
14:00
20°
1019.1 hPa 30.4 mm 9.7°
9
1%
20:00
17°
1018.8 hPa 30.4 mm 14.9°
9
1%
 04:59     21:58    Daglengte: 16:59 Woensdag 13 Jul
02:00
13°
1017.3 hPa   11.0°
3
51%
08:00
16°
1016.8 hPa   12.2°
4
60%
14:00
21°
1016.6 hPa 0.5 mm 13.1°
5
62%
20:00
18°
1016.0 hPa 0.6 mm 13.1°
4
56%
 05:00     21:57    Daglengte: 16:57 Donderdag 14 Jul
02:00
13°
1015.7 hPa 0.2 mm 11.2°
3
51%
08:00
16°
1015.5 hPa 0.1 mm 12.3°
3
47%
14:00
21°
1015.6 hPa 0.6 mm 13.0°
4
51%
20:00
19°
1015.2 hPa 0.4 mm 12.9°
3
57%
 05:01     21:56    Daglengte: 16:55 Vrijdag 15 Jul
02:00
13°
1015.1 hPa 0.1 mm 11.1°
2
47%
08:00
16°
1015.0 hPa 0.1 mm 12.1°
2
42%
14:00
22°
1015.0 hPa 0.7 mm 12.9°
3
45%
20:00
19°
1014.4 hPa 0.5 mm 12.8°
2
45%
 05:03     21:55    Daglengte: 16:52 Zaterdag 16 Jul
02:00
13°
1014.2 hPa 0.2 mm 11.5°
1
42%
08:00
17°
1013.5 hPa 0.2 mm 12.9°
1
39%
14:00
23°
1012.8 hPa 0.9 mm 13.7°
2
46%
20:00
19°
1012.4 hPa 0.8 mm 13.4°
2
47%
 05:04     21:53    Daglengte: 16:49 Zondag 17 Jul
02:00
14°
1012.5 hPa 0.3 mm 11.7°
1
49%
08:00
16°
1012.0 hPa 0.2 mm 12.9°
1
49%
14:00
21°
1012.1 hPa 0.2 mm 13.5°
2
57%
20:00
18°
1011.9 hPa 0.7 mm 12.9°
3
57%
 05:06     21:52    Daglengte: 16:46 Maandag 18 Jul
02:00
13°
1012.5 hPa 0.3 mm 10.7°
2
53%
08:00
16°
1012.7 hPa 0.1 mm 12.0°
2
50%
  CAPE Lifted Index Hail Supercell Tornado SRH 3km CL BTM PRES CL TOP PRES Swiss DWD icon SMHI TS
 04:47     22:07    Daglengte: 17:20 Vandaag
09:00 467 J/kg -2.5 K 0 % 0 % 0 % 0 m²/s² 0 0 -2.2 2
10:00 493 J/kg -2.5 K 0 % 0 % 0 % 0 m²/s² 0 0 -1.81 2
11:00 507 J/kg -1.8 K 0 % 0 % 0 % 0 m²/s² 0 0 -0.84 1
12:00 360 J/kg -1.0 K 0 % 0 % 0 % 0 m²/s² 0 0 -0.04 80
13:00 220 J/kg -0.2 K 0 % 0 % 0 % 0 m²/s² 0 0 1.57 80
14:00 117 J/kg 0.7 K 0 % 0 % 0 % 0 m²/s² 0 0 3.82 80
15:00 107 J/kg 1.1 K 0 % 0 % 0 % 0 m²/s² 0 0 3.98 2
16:00 51 J/kg 1.8 K 0 % 0 % 0 % 0 m²/s² 0 0 5.58 3
17:00 42 J/kg 2.1 K 0 % 0 % 0 % 0 m²/s² 0 0 5.88 3
18:00 46 J/kg 2.3 K 0 % 0 % 0 % 0 m²/s² 0 0 5.78 3
19:00 24 J/kg 2.4 K 0 % 0 % 0 % 0 m²/s² 0 0 6.06 3
20:00 76 J/kg 1.4 K 0 % 0 % 0 % 0 m²/s² 0 0 4.85 3
21:00 170 J/kg -0.2 K 0 % 0 % 0 % 0 m²/s² 0 0 3.25 3
22:00 224 J/kg -0.8 K 0 % 0 % 0 % 0 m²/s² 0 0 0.91 3
23:00 163 J/kg -0.8 K 0 % 0 % 0 % 0 m²/s² 0 0 0.01 3
 04:48     22:07    Daglengte: 17:19 Morgen
00:00 63 J/kg -0.2 K 0 % 0 % 0 % 0 m²/s² 0 0 0.58 3
01:00 92 J/kg -0.1 K 0 % 0 % 0 % 0 m²/s² 0 0 1.22 3
02:00 154 J/kg 0.1 K 0 % 0 % 0 % 0 m²/s² 0 0 2.59 3
03:00 105 J/kg 0.4 K 0 % 0 % 0 % 0 m²/s² 0 0 3.85 2
04:00 66 J/kg 1.2 K 0 % 0 % 0 % 0 m²/s² 0 0 4.74 2
05:00 47 J/kg 1.8 K 0 % 0 % 0 % 0 m²/s² 0 0 5.19 2
06:00 32 J/kg 2.3 K 0 % 0 % 0 % 0 m²/s² 0 0 5.09 2
07:00 75 J/kg 2.0 K 0 % 0 % 0 % 0 m²/s² 0 0 4.01 1
08:00 101 J/kg 2.6 K 0 % 0 % 0 % 0 m²/s² 0 0 4.34 3
09:00 106 J/kg 2.5 K 0 % 0 % 0 % 0 m²/s² 0 0 4.63 3
10:00 119 J/kg 2.0 K 0 % 0 % 0 % 0 m²/s² 0 0 4.61 3
11:00 204 J/kg 0.7 K 0 % 0 % 0 % 0 m²/s² 0 0 2.5 3
12:00 272 J/kg 0.3 K 0 % 0 % 0 % 0 m²/s² 0 0 0.66 3
13:00 432 J/kg -0.7 K 0 % 0 % 0 % 0 m²/s² 0 0 1.43 3
14:00 278 J/kg 0.8 K 0 % 0 % 0 % 0 m²/s² 0 0 2.99 3
15:00 193 J/kg 1.7 K 0 % 0 % 0 % 0 m²/s² 0 0 4.31 3
16:00 143 J/kg 2.8 K 0 % 0 % 0 % 0 m²/s² 0 0 5.8 3
17:00 154 J/kg 3.1 K 0 % 0 % 0 % 0 m²/s² 0 0 6.01 3
18:00 191 J/kg 3.0 K 0 % 0 % 0 % 0 m²/s² 0 0 5.76 3
19:00 155 J/kg 3.7 K 0 % 0 % 0 % 0 m²/s² 0 0 6.37 3
20:00 143 J/kg 4.0 K 0 % 0 % 0 % 0 m²/s² 0 0 6.91 3
21:00 70 J/kg 5.4 K 0 % 0 % 0 % 0 m²/s² 0 0 8.16 2
22:00 50 J/kg 6.7 K 0 % 0 % 0 % 0 m²/s² 0 0 8.95 2
23:00 21 J/kg 8.0 K 0 % 0 % 0 % 0 m²/s² 0 0 9.59 2
 04:49     22:06    Daglengte: 17:17 Dinsdag 05 Jul
00:00 30 J/kg 8.1 K 0 % 0 % 0 % 0 m²/s² 0 0 9.81 2
01:00 28 J/kg 8.2 K 0 % 0 % 0 % 0 m²/s² 0 0 9.85 1
02:00 15 J/kg 8.2 K 0 % 0 % 0 % 0 m²/s² 0 0 9.91 2
03:00 6 J/kg 7.5 K 0 % 0 % 0 % 0 m²/s² 0 0 9.45 3
04:00 19 J/kg 6.7 K 0 % 0 % 0 % 0 m²/s² 0 0 9.25 2
05:00 38 J/kg 5.8 K 0 % 0 % 0 % 0 m²/s² 0 0 8.5 3
06:00 58 J/kg 6.2 K 0 % 0 % 0 % 0 m²/s² 0 0 9.47 3
07:00 111 J/kg 5.7 K 0 % 0 % 0 % 0 m²/s² 0 0 9.3 3
08:00 109 J/kg 6.0 K 0 % 0 % 0 % 0 m²/s² 0 0 9.9 3
09:00 151 J/kg 5.2 K 0 % 0 % 0 % 0 m²/s² 0 0 9.19 3
10:00 192 J/kg 4.6 K 0 % 0 % 0 % 0 m²/s² 0 0 6.91 2
11:00 199 J/kg 4.1 K 0 % 0 % 0 % 0 m²/s² 0 0 6.35 3
12:00 164 J/kg 4.0 K 0 % 0 % 0 % 0 m²/s² 0 0 7.99 2
13:00 157 J/kg 3.8 K 0 % 0 % 0 % 0 m²/s² 0 0 7.61 2
14:00 129 J/kg 3.8 K 0 % 0 % 0 % 0 m²/s² 0 0 7.91 2
15:00 90 J/kg 4.1 K 0 % 0 % 0 % 0 m²/s² 0 0 8.75 2
16:00 113 J/kg 3.3 K 0 % 0 % 0 % 0 m²/s² 0 0 7.83 3
17:00 134 J/kg 2.6 K 0 % 0 % 0 % 0 m²/s² 0 0 5.78 2
18:00 113 J/kg 3.7 K 0 % 0 % 0 % 0 m²/s² 0 0 5.83 2
19:00 102 J/kg 4.4 K 0 % 0 % 0 % 0 m²/s² 0 0 5.87 2
20:00 88 J/kg 4.7 K 0 % 0 % 0 % 0 m²/s² 0 0 6.05 2
21:00 59 J/kg 5.1 K 0 % 0 % 0 % 0 m²/s² 0 0 7.02 1
22:00 62 J/kg 5.3 K 0 % 0 % 0 % 0 m²/s² 0 0 7.91 2
23:00 52 J/kg 5.9 K 0 % 0 % 0 % 0 m²/s² 0 0 7.64 2
 04:50     22:05    Daglengte: 17:15 Woensdag 06 Jul
00:00 39 J/kg 6.3 K 0 % 0 % 0 % 0 m²/s² 0 0 9.66 2
01:00 41 J/kg 6.3 K 0 % 0 % 0 % 0 m²/s² 0 0 11.22 2
02:00 47 J/kg 6.6 K 0 % 0 % 0 % 0 m²/s² 0 0 12.24 2
03:00 17 J/kg 7.8 K 0 % 0 % 0 % 0 m²/s² 0 0 13.59 2
04:00 10 J/kg 8.6 K 0 % 0 % 0 % 0 m²/s² 0 0 14.24 2
05:00 8 J/kg 9.2 K 0 % 0 % 0 % 0 m²/s² 0 0 14.69 2
06:00 15 J/kg 8.5 K 0 % 0 % 0 % 0 m²/s² 0 0 13.57 2
07:00 39 J/kg 8.0 K 0 % 0 % 0 % 0 m²/s² 0 0 12.92 3
08:00 57 J/kg 7.4 K 0 % 0 % 0 % 0 m²/s² 0 0 12.08 2
Temp Baro Wind Neerslag
  EWN Forecast EWN WRFDA DWD ICON FMI HIRLAM MET Norway GFS
 04:47     22:07    Daglengte: 17:20 Vandaag
11:00 20.8° 1016.3 hPa 2.8 m/s 0.0 mm 20.3° 1014.9 hPa 1.9 m/s 0.1 mm 20.8° 1015.6 hPa 2.3 m/s 0.0 mm 21.8° 1016.5 hPa 2.9 m/s 0.0 mm 22.0° 1015.8 hPa 2.7 m/s
14:00 21.9° 1015.7 hPa 3.6 m/s 0.5 mm 24.2° 1014.5 hPa 4.7 m/s 0.3 mm 20.9° 1015.7 hPa 3.4 m/s 0.9 mm 23.0° 1016.4 hPa 4.2 m/s 0.0 mm 23.4° 1015.4 hPa 5.3 m/s
17:00 20.7° 1015.5 hPa 3.5 m/s 1.2 mm 23.3° 1014.1 hPa 5.4 m/s 0.3 mm 20.2° 1015.6 hPa 3.3 m/s 0.2 mm 22.0° 1015.9 hPa 4.0 m/s 0.0 mm 22.0° 1015.3 hPa 5.2 m/s
20:00 18.5° 1015.2 hPa 3.4 m/s 0.0 mm 20.6° 1014.4 hPa 4.7 m/s 0.3 mm 18.3° 1015.1 hPa 3.8 m/s 0.0 mm 18.5° 1016.3 hPa 3.1 m/s 0.0 mm 18.6° 1015.5 hPa 4.3 m/s
23:00 15.4° 1015.7 hPa 2.2 m/s 0.0 mm 14.4° 1014.7 hPa 3.0 m/s 0.3 mm 14.9° 1015.7 hPa 1.9 m/s 0.0 mm 15.7° 1016.4 hPa 2.1 m/s 0.0 mm 13.6° 1015.5 hPa 3.4 m/s
 04:48     22:07    Daglengte: 17:19 Morgen
02:00 14.4° 1015.5 hPa 2.6 m/s 0.0 mm 12.0° 1014.6 hPa 2.6 m/s 0.3 mm 14.2° 1015.4 hPa 2.5 m/s 0.0 mm 15.2° 1016.6 hPa 2.4 m/s 0.0 mm 12.2° 1015.4 hPa 2.8 m/s
05:00 12.8° 1015.4 hPa 2.4 m/s 0.0 mm 11.4° 1013.9 hPa 3.4 m/s 0.3 mm 12.4° 1015.4 hPa 2.1 m/s 0.0 mm 13.0° 1016.3 hPa 2.3 m/s 0.0 mm 11.1° 1014.9 hPa 3.3 m/s
08:00 15.3° 1015.5 hPa 3.5 m/s 0.0 mm 16.0° 1014.1 hPa 4.6 m/s 0.3 mm 15.2° 1015.6 hPa 3.9 m/s 0.0 mm 15.4° 1016.4 hPa 3.2 m/s 0.0 mm 15.5° 1014.8 hPa 4.6 m/s
11:00 17.2° 1015.1 hPa 5.3 m/s 0.0 mm 17.9° 1013.5 hPa 5.9 m/s 0.3 mm 16.8° 1015.2 hPa 4.7 m/s 0.1 mm 17.7° 1016.1 hPa 5.5 m/s 0.0 mm 17.6° 1014.4 hPa 7.3 m/s
14:00 18.4° 1014.6 hPa 6.3 m/s 0.0 mm 18.9° 1013.2 hPa 7.8 m/s 2.5 mm 18.3° 1014.6 hPa 5.9 m/s 0.1 mm 18.5° 1015.8 hPa 6.0 m/s 0.0 mm 18.6° 1014.1 hPa 7.6 m/s
17:00 18.0° 1014.8 hPa 6.3 m/s 0.0 mm 18.7° 1013.7 hPa 7.9 m/s 4.0 mm 16.9° 1014.9 hPa 5.8 m/s 0.1 mm 18.3° 1015.4 hPa 6.2 m/s 0.0 mm 17.1° 1014.9 hPa 8.5 m/s
20:00 16.1° 1014.7 hPa 5.8 m/s 0.0 mm 16.4° 1013.8 hPa 7.3 m/s 4.0 mm 15.3° 1014.8 hPa 5.1 m/s 0.0 mm 16.9° 1014.9 hPa 6.0 m/s 0.0 mm 14.8° 1014.8 hPa 6.9 m/s
23:00 13.9° 1015.2 hPa 4.2 m/s 0.0 mm 13.5° 1014.4 hPa 4.4 m/s 4.0 mm 12.9° 1015.3 hPa 3.5 m/s 0.0 mm 14.4° 1015.7 hPa 4.3 m/s 0.0 mm 12.1° 1015.5 hPa 4.7 m/s
 04:49     22:06    Daglengte: 17:17 Dinsdag 05 Jul
02:00 12.8° 1015.5 hPa 3.5 m/s 0.0 mm 11.0° 1014.5 hPa 4.2 m/s 4.0 mm 11.2° 1015.8 hPa 2.8 m/s 0.0 mm 14.0° 1015.6 hPa 3.5 m/s 0.0 mm 12.3° 1015.4 hPa 5.5 m/s
05:00 11.9° 1015.3 hPa 4.0 m/s 0.5 mm 11.6° 1014.5 hPa 4.4 m/s 4.0 mm 11.8° 1015.6 hPa 3.1 m/s 0.0 mm 12.5° 1015.3 hPa 6.5 m/s
08:00 14.3° 1015.8 hPa 4.8 m/s 0.0 mm 15.9° 1015.1 hPa 6.3 m/s 4.0 mm 14.1° 1016.1 hPa 4.6 m/s 0.0 mm 14.7° 1015.9 hPa 6.4 m/s
11:00 16.5° 1016.0 hPa 6.0 m/s 0.0 mm 16.7° 1015.4 hPa 6.6 m/s 5.2 mm 16.5° 1016.8 hPa 5.9 m/s 0.0 mm 17.6° 1016.3 hPa 7.9 m/s
14:00 17.8° 1016.6 hPa 6.7 m/s 0.0 mm 17.5° 1015.4 hPa 7.3 m/s 7.2 mm 17.9° 1017.1 hPa 6.6 m/s 0.0 mm 16.5° 1016.7 hPa 7.0 m/s
17:00 17.2° 1017.0 hPa 6.4 m/s 0.0 mm 17.1° 1015.5 hPa 7.4 m/s 7.6 mm 17.4° 1017.2 hPa 6.3 m/s 0.0 mm 17.5° 1016.8 hPa 7.9 m/s
20:00 15.3° 1017.1 hPa 5.7 m/s 0.0 mm 15.1° 1016.0 hPa 7.0 m/s 9.4 mm 15.2° 1017.1 hPa 5.3 m/s 0.0 mm 14.8° 1017.3 hPa 6.4 m/s
23:00 12.1° 1017.8 hPa 4.0 m/s 0.0 mm 10.9° 1016.6 hPa 3.6 m/s 10.2 mm 12.0° 1018.0 hPa 3.6 m/s 0.0 mm 11.2° 1017.7 hPa 3.9 m/s
 04:50     22:05    Daglengte: 17:15 Woensdag 06 Jul
02:00 10.7° 1017.9 hPa 3.0 m/s 0.0 mm 10.4° 1016.8 hPa 3.8 m/s 10.9 mm 10.8° 1018.1 hPa 2.8 m/s 0.0 mm 10.9° 1017.8 hPa 4.7 m/s
05:00 9.7° 1017.8 hPa 2.6 m/s 0.0 mm 8.8° 1017.2 hPa 3.8 m/s 10.9 mm 10.0° 1018.0 hPa 2.3 m/s 0.0 mm 11.5° 1018.1 hPa 5.8 m/s
08:00 13.4° 1017.8 hPa 3.8 m/s 0.0 mm 13.9° 1017.9 hPa 6.8 m/s 10.9 mm 13.3° 1017.7 hPa 3.0 m/s 0.0 mm 13.7° 1018.5 hPa 6.6 m/s
11:00 16.0° 1019.2 hPa 9.1 m/s 6.6 mm 16.0° 1019.2 hPa 9.1 m/s 6.6 mm
14:00 17.9° 1019.7 hPa 9.7 m/s 6.6 mm 17.9° 1019.7 hPa 9.7 m/s 6.6 mm
17:00 16.9° 1019.9 hPa 8.8 m/s 6.6 mm 16.9° 1019.9 hPa 8.8 m/s 6.6 mm
20:00 13.9° 1019.4 hPa 5.7 m/s 6.6 mm 13.9° 1019.4 hPa 5.7 m/s 6.6 mm
23:00 11.8° 1018.7 hPa 3.4 m/s 6.7 mm 11.8° 1018.7 hPa 3.4 m/s 6.7 mm
 04:51     22:04    Daglengte: 17:13 Donderdag 07 Jul
02:00 13.2° 1017.7 hPa 6.4 m/s 6.7 mm 13.2° 1017.7 hPa 6.4 m/s 6.7 mm
05:00 13.8° 1017.3 hPa 6.4 m/s 6.7 mm 13.8° 1017.3 hPa 6.4 m/s 6.7 mm
08:00 14.8° 1017.0 hPa 4.6 m/s 6.8 mm 14.8° 1017.0 hPa 4.6 m/s 6.8 mm
11:00 16.1° 1017.5 hPa 6.9 m/s 7.6 mm 16.1° 1017.5 hPa 6.9 m/s 7.6 mm
14:00 18.7° 1017.8 hPa 9.4 m/s 8.4 mm 18.7° 1017.8 hPa 9.4 m/s 8.4 mm
17:00 18.0° 1018.7 hPa 8.9 m/s 8.8 mm 18.0° 1018.7 hPa 8.9 m/s 8.7 mm
20:00 16.1° 1018.8 hPa 8.8 m/s 8.8 mm 16.1° 1018.8 hPa 8.8 m/s 8.8 mm
23:00 13.6° 1019.4 hPa 7.8 m/s 8.8 mm 13.6° 1019.4 hPa 7.8 m/s 8.8 mm
 04:52     22:03    Daglengte: 17:11 Vrijdag 08 Jul
02:00 15.7° 1018.7 hPa 8.6 m/s 8.8 mm 15.7° 1018.7 hPa 8.6 m/s 8.8 mm
05:00 15.5° 1018.0 hPa 7.7 m/s 8.8 mm 15.5° 1018.0 hPa 7.7 m/s 8.8 mm
08:00 15.8° 1017.0 hPa 6.6 m/s 8.9 mm 15.8° 1017.0 hPa 6.6 m/s 8.9 mm
11:00 18.8° 1015.4 hPa 7.2 m/s 9.1 mm 18.8° 1015.4 hPa 7.2 m/s 9.1 mm
14:00 15.6° 1014.3 hPa 6.9 m/s 10.8 mm 15.6° 1014.3 hPa 6.9 m/s 10.8 mm
17:00 17.1° 1012.9 hPa 8.2 m/s 11.4 mm 17.1° 1012.9 hPa 8.2 m/s 11.4 mm
20:00 15.5° 1013.4 hPa 9.8 m/s 11.6 mm 15.5° 1013.4 hPa 9.8 m/s 11.6 mm
23:00 13.3° 1013.6 hPa 8.9 m/s 11.6 mm 13.3° 1013.6 hPa 8.9 m/s 11.6 mm
 04:53     22:03    Daglengte: 17:10 Zaterdag 09 Jul
02:00 13.7° 1012.8 hPa 9.7 m/s 11.7 mm 13.7° 1012.8 hPa 9.7 m/s 11.7 mm
05:00 13.7° 1013.2 hPa 7.4 m/s 11.7 mm 13.7° 1013.2 hPa 7.4 m/s 11.7 mm
08:00 16.3° 1014.4 hPa 7.5 m/s 11.7 mm 16.3° 1014.4 hPa 7.5 m/s 11.7 mm
11:00 19.1° 1016.2 hPa 7.9 m/s 11.7 mm 19.1° 1016.2 hPa 7.9 m/s 11.7 mm
14:00 20.1° 1017.6 hPa 7.2 m/s 12.6 mm 20.1° 1017.6 hPa 7.2 m/s 12.6 mm
17:00 18.4° 1019.1 hPa 5.3 m/s 13.4 mm 18.4° 1019.1 hPa 5.3 m/s 13.4 mm
20:00 18.0° 1020.3 hPa 5.8 m/s 13.4 mm 18.0° 1020.3 hPa 5.8 m/s 13.4 mm
23:00 12.6° 1021.8 hPa 5.0 m/s 13.4 mm 12.6° 1021.8 hPa 5.0 m/s 13.4 mm
 04:54     22:02    Daglengte: 17:08 Zondag 10 Jul
02:00 10.7° 1022.1 hPa 4.8 m/s 13.4 mm 10.7° 1022.1 hPa 4.8 m/s 13.4 mm
05:00 9.9° 1022.0 hPa 4.1 m/s 13.4 mm 9.9° 1022.0 hPa 4.1 m/s 13.4 mm
08:00 14.4° 1021.5 hPa 5.6 m/s 13.4 mm 14.4° 1021.5 hPa 5.6 m/s 13.4 mm
14:00 18.9° 1020.7 hPa 6.9 m/s 13.4 mm 18.9° 1020.7 hPa 6.9 m/s 13.4 mm
20:00 17.0° 1019.3 hPa 6.1 m/s 14.3 mm 17.0° 1019.3 hPa 6.1 m/s 14.3 mm
 04:56     22:01    Daglengte: 17:05 Maandag 11 Jul
02:00 12.8° 1018.3 hPa 3.7 m/s 14.5 mm 12.8° 1018.3 hPa 3.7 m/s 14.5 mm
08:00 14.9° 1018.2 hPa 5.5 m/s 15.0 mm 14.9° 1018.2 hPa 5.5 m/s 15.0 mm
14:00 19.3° 1018.8 hPa 8.0 m/s 15.1 mm 19.3° 1018.8 hPa 8.0 m/s 15.1 mm
20:00 15.6° 1019.0 hPa 7.7 m/s 15.1 mm 15.6° 1019.0 hPa 7.7 m/s 15.1 mm
 04:57     21:59    Daglengte: 17:02 Dinsdag 12 Jul
02:00 15.4° 1016.7 hPa 6.5 m/s 15.1 mm 15.4° 1016.7 hPa 6.5 m/s 15.1 mm
08:00 15.6° 1016.9 hPa 9.1 m/s 15.2 mm 15.6° 1016.9 hPa 9.1 m/s 15.2 mm
14:00 20.4° 1019.1 hPa 9.0 m/s 15.2 mm 20.4° 1019.1 hPa 9.0 m/s 15.2 mm
20:00 17.5° 1018.8 hPa 9.1 m/s 15.2 mm 17.5° 1018.8 hPa 9.1 m/s 15.2 mm
 04:59     21:58    Daglengte: 16:59 Woensdag 13 Jul
02:00 13.0° 1017.3 hPa 3.5 m/s 0.0 mm
08:00 16.0° 1016.8 hPa 3.9 m/s 0.0 mm
14:00 20.8° 1016.6 hPa 4.5 m/s 0.5 mm
20:00 17.9° 1016.0 hPa 3.7 m/s 0.6 mm
 05:00     21:57    Daglengte: 16:57 Donderdag 14 Jul
02:00 13.1° 1015.7 hPa 2.6 m/s 0.2 mm
08:00 16.1° 1015.5 hPa 3.0 m/s 0.1 mm
14:00 21.5° 1015.6 hPa 3.8 m/s 0.6 mm
20:00 18.8° 1015.2 hPa 3.2 m/s 0.4 mm
 05:01     21:56    Daglengte: 16:55 Vrijdag 15 Jul
02:00 13.2° 1015.1 hPa 2.0 m/s 0.1 mm
08:00 16.1° 1015.0 hPa 1.7 m/s 0.1 mm
14:00 21.7° 1015.0 hPa 2.5 m/s 0.7 mm
20:00 19.0° 1014.4 hPa 2.2 m/s 0.5 mm
 05:03     21:55    Daglengte: 16:52 Zaterdag 16 Jul
02:00 13.5° 1014.2 hPa 1.2 m/s 0.2 mm
08:00 16.5° 1013.5 hPa 1.0 m/s 0.2 mm
14:00 22.6° 1012.8 hPa 1.8 m/s 0.9 mm
20:00 19.4° 1012.4 hPa 2.3 m/s 0.8 mm
 05:04     21:53    Daglengte: 16:49 Zondag 17 Jul
02:00 14.1° 1012.5 hPa 1.1 m/s 0.3 mm
08:00 16.3° 1012.0 hPa 1.0 m/s 0.2 mm
14:00 21.3° 1012.1 hPa 2.4 m/s 0.2 mm
20:00 18.4° 1011.9 hPa 2.9 m/s 0.7 mm
 05:06     21:52    Daglengte: 16:46 Maandag 18 Jul
02:00 13.0° 1012.5 hPa 1.7 m/s 0.3 mm
08:00 16.0° 1012.7 hPa 1.9 m/s 0.1 mm
FMI Hirlam - 7.5 km EWN WRFDA - 12 km DWD ICON - 7 km GFS - 25 km Basiskaart






























































Updatetijd (Europe/Brussels) Resolutie Lengte Stap
FMI Hirlam 07:00, 13:00, 19:00, 01:00 7.5 km 49h 1h
EWN WRFDA 04:15, 10:15, 16:15, 22:15 12 km 73h 1h
DWD ICON 05:45, 11:45, 17:45, 23:45 7 km 75h 1h
GFS 08:15, 14:15, 20:15, 02:15 25 km 237h 3h
30+ mm
25-30 mm
20-25 mm
15-20 mm
10-15 mm
6-10 mm
4-6 mm
2-4 mm
1-2 mm
0.5-1 mm
0.2-0.5 mm
0.1-0.2 mm
30+ mm
25-30 mm
20-25 mm
15-20 mm
10-15 mm
6-10 mm
4-6 mm
2-4 mm
1-2 mm
0.5-1 mm
0.2-0.5 mm
0.1-0.2 mm
Sneeuwval
Natte sneeuw
Hagel
Vorst
30+ mm
25-30 mm
20-25 mm
15-20 mm
10-15 mm
6-10 mm
4-6 mm
2-4 mm
1-2 mm
0.5-1 mm
0.2-0.5 mm
0.1-0.2 mm
Sneeuwval
Natte sneeuw
Hagel
Vorst
Onweer
50 mm
40 mm
30 mm
26 mm
22 mm
18 mm
14 mm
10 mm
9 mm
8 mm
7 mm
6 mm
5 mm
4.5 mm
4 mm
3.5 mm
3 mm
2.5 mm
2 mm
1.5 mm
1 mm
0.8 mm
0.6 mm
0.4 mm
0.2 mm
0.05 mm
35°
30°
25°
20°
15°
10°
-5°
-10°
-15°
-20°
-25°
-30°
-35°
33> m/s
29 m/s
25 m/s
21 m/s
17 m/s
14 m/s
11 m/s
8 m/s
5 m/s
3 m/s
0 m/s
2600 J/kg
2400 J/kg
2200 J/kg
2000 J/kg
1800 J/kg
1600 J/kg
1400 J/kg
1200 J/kg
1000 J/kg
800 J/kg
600 J/kg
400 J/kg
200 J/kg
70 dBZ
65 dBZ
60 dBZ
55 dBZ
50 dBZ
45 dBZ
40 dBZ
35 dBZ
30 dBZ
25 dBZ
20 dBZ
15 dBZ
10 dBZ
5 dBZ
-1 K
-2 K
-3 K
-4 K
-5 K
-6 K
-7 K
-8 K
-9 K
950 m²/s²
900 m²/s²
850 m²/s²
800 m²/s²
750 m²/s²
700 m²/s²
650 m²/s²
600 m²/s²
550 m²/s²
500 m²/s²
450 m²/s²
400 m²/s²
350 m²/s²
300 m²/s²
250 m²/s²
200 m²/s²
150 m²/s²
100 m²/s²
46 m/s
44 m/s
42 m/s
40 m/s
38 m/s
36 m/s
34 m/s
32 m/s
30 m/s
28 m/s
26 m/s
24 m/s
22 m/s
20 m/s
16 m/s
12 m/s
8 m/s
4 m/s
30 m/s
28 m/s
26 m/s
24 m/s
22 m/s
20 m/s
18 m/s
16 m/s
14 m/s
12 m/s
10 m/s
8 m/s
6 m/s
4 m/s
2 m/s
3.0
2.8
2.6
2.4
2.2
2.0
1.8
1.6
1.4
1.2
1.0
0.8
0.6
0.4
0.2
15
14
13
12
11
10
9
8
7
6
5
4
3
2
1
90%
80%
70%
60%
50%
40%
30%
20%
10%
42
40
38
36
34
32
30
28
26
24
22
20
18
16
14
12
90+ cm
80-90 cm
70-80 cm
60-70 cm
50-60 cm
40-50 cm
30-40 cm
20-30 cm
10-20 cm
1-10 cm
Sneeuwval
Natte sneeuw
Regen
>120 mm
115 mm
110 mm
105 mm
100 mm
95 mm
90 mm
85 mm
80 mm
75 mm
70 mm
65 mm
60 mm
55 mm
50 mm
45 mm
45 mm
40 mm
35 mm
30 mm
25 mm
20 mm
15 mm
10 mm
5 mm
0.1 mm
960 hPa
880 hPa
800 hPa
720 hPa
640 hPa